DECAYED

STARLINK-2331, 47875 (Decayed)

Orbit data source: Space-Track

STARLINK-2331, 47875 was a payload satellite owned by SpaceX/Seattle (US) in LEO that was launched on Sun, 14 Mar 2021 UTC via an FALCON 9 launch vehicle from the Air Force Eastern Test Range (AFETR). Payload-class satellites include a variety of spacecraft equipped with specific instruments for various scientific and technological missions. These include communications satellites like Starlink; space stations such as the ISS; scientific satellites like the Hubble; Earth observation satellites from companies like Planet Labs, Umbra, and HawkEye 360; GPS; miniature CubeSats for education and research; and military/defense satellites.

Not visible in the next 10 days
Identifier
47875, 2021-021R
Orbit
Decayed
Country
Flag of USUS
Related business
Manufacturer
SpaceX/Seattle
Mission
Decayed Commercial Communications
Bus & Motor
STARLINK, Unknown motor
Mass
260 kg wet, ~248 kg dry
Launch date (UTC)
2021-03-14 (5 years ago)
Launch vehicle
FALCON 9
Launch site
Air Force Eastern Test Range (AFETR)
Object type
Payload
Rocket body
Debris
Shape & HBR
Box + 1 Pan, 10.1 m
Radar Cross Section
13.562 m², Large (>1 m²)

Expand to show TLE details & history
Last TLE update: 1 year ago

TLE from 1 year ago
0 STARLINK-2331
1 47875U 21021R   25024.10073676  .17960486  12472-4  53404-3 0  9990
2 47875  53.0186 271.1579 0003778 239.6250 277.4435 16.45106103214523
Epoch: 2025-01-24T02:25Z
TLE epoch observation values (Epoch: 2025-01-24T02:25:03.656Z)
Latitude
18.20159°
Longitude
-83.02787°
Altitude
152.288 km
Speed
7.818 km/s
True Right ascension
05h 07m 37s
True Declination
18° 05' 25"
Sunlit
Object was in full shadow at epoch
Visualization orbit readout
Latitude
Unknown
Longitude
Unknown
Altitude
Unknown
Speed
Unknown
Apparent Right ascension
Unknown
Apparent Declination
Unknown
Sunlit
N/A
Visualization observer readout
Local Sidereal Time
21:29:09
Azimuth
Unknown
Elevation
Unknown
Doppler factor
Unknown
Orbital elements
Apogee altitude
155.015 km
Perigee altitude
150.08 km
Semi-major axis
6,530.684 km
Eccentricity
0.00038
Inclination
53.0186°
RAAN
271.1579°
Arg. of periapsis
239.625°
True anomaly
277.40057°
Mean anomaly
277.4435°
Eccentric anomaly
277.42204°
Mean motion
4.11249 °/min
Orbital period
87.54 mins
BSTAR
0.00053404
Loading maneuver chart data...
Computing Atmospheric mass density...

Documentation

Showing up to 5 results
|